Skip Page Navigation
NASA JPL Caltech
NASA Logo - Jet Propulsion Laboratory + View the NASA Portal
+ Center for Near-Earth Object Studies
JPL Home Earth Solar System Stars & Galaxies Technology
JPL Solar System Dynamics
BODIES ORBITS EPHEMERIDES TOOLS PHYSICAL DATA DISCOVERY FAQ SITE MAP
IMPORTANT: The SSD Announcement email list is now available. Major changes are coming in the near future, including possible hostname and/or URL changes. To be notified of such changes, subscribe to this email list.

Please visit this page for more details.


JPL Small-Body Database Browser
Search: [ help ]  
324590 (2006 XN20)
Classification: Main-belt Asteroid          SPK-ID: 2324590
Ephemeris | Orbit Diagram | Orbital Elements | Mission Design | Physical Parameters | Discovery Circumstances ]

[ hide orbit diagram ]

For accurate long-term ephemerides, please instead use our Horizons system.This orbit viewer was implemented using two-body methods, and hence should not be used for determining accurate long-term trajectories (over several years or decades) or planetary encounter circumstances.


[ revert to old Java-based viewer ]

Orbital Elements at Epoch 2459000.5 (2020-May-31.0) TDB
Reference: JPL 14 (heliocentric ecliptic J2000)
 Element Value Uncertainty (1-sigma)   Units 
e .1303927973556251 5.9281e-08  
a 2.630506118878135 2.5146e-08 au
q 2.287507067576526 1.6353e-07 au
i 3.360958112041813 4.7646e-06 deg
node 110.7047661316912 0.00010485 deg
peri 289.3902177123212 0.00010883 deg
M 103.2108911967093 2.8413e-05 deg
tp 2458553.733677086576
(2019-Mar-11.23367709)
0.00012008 TDB
period 1558.322715596903
4.27
2.2345e-05
6.118e-08
d
yr
n .2310176168240639 3.3126e-09 deg/d
Q 2.973505170179743 2.8425e-08 au
  Orbit Determination Parameters
   # obs. used (total)      226  
   data-arc span      4802 days (13.15 yr)  
   first obs. used      2006-12-11  
   last obs. used      2020-02-03  
   planetary ephem.      DE431  
   SB-pert. ephem.      SB431-N16  
   condition code      0  
   norm. resid. RMS      .58487  
   source      ORB  
   producer      Otto Matic  
   solution date      2020-Feb-25 20:11:55  

Additional Information
 Earth MOID = 1.29823 au 
 Jupiter MOID = 2.41952 au 
 T_jup = 3.386 
[ show covariance matrix ]

Ephemeris | Orbit Diagram | Orbital Elements | Mission Design | Physical Parameters | Discovery Circumstances ]

Physical Parameter Table
Parameter Symbol Value Units Sigma Reference Notes
absolute magnitude H 16.8   n/a MPO455393  

324590 (2006 XN20)          Discovered 2006-Dec-11 by Spacewatch at Kitt Peak
Reference: 20120406/Numbers.arcLast Updated: 2012-04-09
Ephemeris | Orbit Diagram | Orbital Elements | Mission Design | Physical Parameters | Discovery Circumstances ]
ABOUT SSD CREDITS/AWARDS PRIVACY/COPYRIGHT GLOSSARY LINKS
FirstGov 2020-Mar-28 18:57 UT
(server date/time)  
NASA Home Page
Site Manager:   Ryan S. Park
Webmaster  Alan B. Chamberlin